Retour au catalogue

FALCON 9 DEB

ActifVLEO
NORAD 48610·DEBRIS·🇺🇸 United States

Lancé May 15, 2021 depuis Cape Canaveral Space Force Station

Loading…

Prochains Passages (prochaines 24 heures)

TLE

FraisSource: Space-Track

Époque: Sep 13, 2026, 18:06 UTC

1 48610U 21041BK  26256.75435513  .00002636  00000-0  15061-3 0  9994
2 48610  53.0218  29.6475 0011428  46.3122 313.8816 15.16221523293144

Suivez FALCON 9 DEB en temps réel avec AllMySat

Download on the App Store